Location: Newark
(21.1200°N, 73.4000°E)
Time: 14:55:16
(UTC+00:00)

Courier 1B Rocket - Pass Details

Date: 26 January 2020
Orbit: 920 x 1202 km, 28.2° (Epoch: 24 February)

Event Time Altitude Azimuth Distance (km) Brightness Sun altitude
Rises 08:10:58 0° 281° (W) 3,905 8.2 48.1°
Reaches altitude 10° 08:13:56 10° 287° (WNW) 2,902 7.6 47.8°
Maximum altitude 08:20:41 46° 359° (N) 1,338 5.9 47.3°
Drops below altitude 10° 08:26:58 10° 72° (ENE) 2,709 7.2 46.7°
Sets 08:29:40 0° 78° (ENE) 3,623 7.7 46.5°
